Ellensburg, WA

6:34 AM PDT on March 29, 2017 (GMT -0700)
Bowers

Weather History for KELN - August, 2013

Change the Weather History Date:

Thursday, August 22, 2013

  Actual Average (KYKM) Record (KYKM)
Temperature  
Mean Temperature 72 °F -  
Max Temperature 93 °F 84 °F 99 °F (1961)
Min Temperature 52 °F 49 °F 35 °F (1960)
Cooling Degree Days 8    
Growing Degree Days 22 (Base 50)    
Moisture  
Dew Point 46 °F    
Average Humidity 44    
Maximum Humidity 71    
Minimum Humidity 16    
Precipitation  
Precipitation 0.00 in - - ()
Sea Level Pressure  
Sea Level Pressure 29.88 in    
Wind  
Wind Speed 4 mph (North)    
Max Wind Speed 14 mph    
Max Gust Speed -    
Visibility 10 miles    
Events Rain    
Averages and records for this station are not official NWS values.
T = Trace of Precipitation, MM = Missing Value Source: NWS Daily Summary

Daily Weather History Graph

Daily Weather History Graph

Search for Another Location

Airport or City:

Trip Planner

Search our weather history database for the weather conditions in past years. The results will help you decide how hot, cold, wet, or windy it might be!

Date:

Astronomy

Aug. 22, 2013 Rise Set
Actual Time 6:08 AM PDT 7:59 PM PDT
Civil Twilight 5:36 AM PDT 8:32 PM PDT
Nautical Twilight 4:56 AM PDT 9:12 PM PDT
Astronomical Twilight 4:12 AM PDT 9:55 PM PDT
Moon 8:33 PM PDT (8/22) 8:14 AM PDT (8/22)
Length of Visible Light 14h 56m
Length of Day
13h 51m
Waning Gibbous, 96% of the Moon is Illuminated
Aug 22
Waning Gibbous
Aug 28
Last Quarter
Sep 5
New
Sep 12
First Quarter
Sep 19
Full

Hourly Weather History & Observations

Time (PDT) Temp. Dew Point Humidity Pressure Visibility Wind Dir Wind Speed Gust Speed Precip Events Conditions
12:53 AM 57.9 °F 44.1 °F 60% 29.95 in 10.0 mi ENE 5.8 mph - N/A   Clear
1:53 AM 57.0 °F 42.1 °F 57% 29.95 in 10.0 mi ENE 4.6 mph - N/A   Mostly Cloudy
2:53 AM 55.0 °F 42.1 °F 62% 29.95 in 10.0 mi Calm Calm - N/A   Clear
3:53 AM 53.1 °F 41.0 °F 64% 29.95 in 10.0 mi Calm Calm - N/A   Clear
4:53 AM 54.0 °F 41.0 °F 62% 29.95 in 10.0 mi South 3.5 mph - N/A   Clear
5:53 AM 52.0 °F 42.1 °F 69% 29.94 in 10.0 mi Calm Calm - N/A   Clear
6:53 AM 52.0 °F 43.0 °F 71% 29.95 in 10.0 mi Calm Calm - N/A   Clear
7:53 AM 61.0 °F 46.0 °F 58% 29.96 in 10.0 mi Calm Calm - N/A   Clear
8:53 AM 62.1 °F 46.0 °F 56% 29.95 in 10.0 mi Calm Calm - N/A   Clear
9:53 AM 68.0 °F 48.0 °F 49% 29.94 in 10.0 mi Calm Calm - N/A   Clear
10:53 AM 75.9 °F 45.0 °F 33% 29.93 in 10.0 mi Variable 3.5 mph - N/A   Clear
11:53 AM 80.1 °F 48.0 °F 32% 29.91 in 10.0 mi Variable 4.6 mph - N/A   Clear
12:53 PM 84.0 °F 48.0 °F 28% 29.88 in 10.0 mi Variable 3.5 mph - N/A   Clear
1:53 PM 93.0 °F 41.0 °F 16% 29.86 in 10.0 mi Variable 4.6 mph - N/A   Clear
2:53 PM 88.0 °F 39.0 °F 18% 29.84 in 10.0 mi NE 4.6 mph - N/A   Clear
3:53 PM 87.1 °F 43.0 °F 21% 29.83 in 10.0 mi SSE 3.5 mph - 0.00 in Rain Light Rain
4:53 PM 84.9 °F 52.0 °F 32% 29.81 in 10.0 mi NW 4.6 mph - 0.00 in   Overcast
5:53 PM 82.9 °F 50.0 °F 32% 29.79 in 10.0 mi NE 3.5 mph - N/A   Partly Cloudy
6:53 PM 79.0 °F 53.1 °F 40% 29.81 in 10.0 mi Variable 3.5 mph - N/A   Mostly Cloudy
7:53 PM 78.1 °F 48.0 °F 35% 29.80 in 10.0 mi NNW 6.9 mph - N/A   Overcast
8:53 PM 79.0 °F 46.9 °F 32% 29.81 in 10.0 mi NNW 9.2 mph - N/A   Partly Cloudy
9:53 PM 72.0 °F 52.0 °F 49% 29.81 in 10.0 mi WSW 4.6 mph - N/A   Mostly Cloudy
10:53 PM 75.0 °F 50.0 °F 41% 29.80 in 10.0 mi NW 10.4 mph - N/A   Clear
11:53 PM 73.9 °F 51.1 °F 45% 29.77 in 10.0 mi NW 13.8 mph - N/A   Partly Cloudy